Time,TemperatureF,DewpointF,PressureIn,WindDirection,WindDirectionDegrees,WindSpeedMPH,WindSpeedGustMPH,Humidity,HourlyPrecipIn,Conditions,Clouds,dailyrainin,SoftwareType,DateUTC
2013-01-18 00:00:00,38.0,33.3,30.39,ENE,67,2.0,15.0,83,0.00,,SKC,0.00,VWS V14.01,2013-01-18 06:00:00,
2013-01-18 00:05:00,38.0,33.0,30.39,ENE,67,1.0,15.0,82,0.00,,SKC,0.00,VWS V14.01,2013-01-18 06:05:00,
2013-01-18 00:10:00,38.0,33.3,30.39,ENE,67,2.0,15.0,83,0.00,,SKC,0.00,VWS V14.01,2013-01-18 06:10:00,
2013-01-18 00:15:00,38.0,33.3,30.39,ENE,67,1.0,15.0,83,0.00,,SKC,0.00,VWS V14.01,2013-01-18 06:15:00,
2013-01-18 00:20:00,37.0,32.3,30.39,ENE,67,1.0,15.0,83,0.00,,SKC,0.00,VWS V14.01,2013-01-18 06:20:00,
2013-01-18 00:25:00,37.0,32.3,30.38,ENE,67,2.0,15.0,83,0.00,,SKC,0.00,VWS V14.01,2013-01-18 06:25:00,
2013-01-18 00:30:00,37.0,32.3,30.38,ENE,67,1.0,15.0,83,0.00,,SKC,0.00,VWS V14.01,2013-01-18 06:30:00,
2013-01-18 00:33:00,85.0,60.7,30.01,ESE,112,0.0,25.0,44,0.00,,SKC,0.00,VWS V14.01,2013-01-18 06:33:00,
2013-01-18 00:34:00,85.0,60.7,30.01,ESE,112,0.0,25.0,44,0.00,,SKC,0.00,VWS V14.01,2013-01-18 06:34:00,
2013-01-18 00:35:00,37.0,32.3,30.38,ENE,67,0.0,15.0,83,0.00,,SKC,0.00,VWS V14.01,2013-01-18 06:35:00,
2013-01-18 00:36:00,85.0,60.7,30.01,ESE,112,0.0,25.0,44,0.00,,SKC,0.00,VWS V14.01,2013-01-18 06:36:00,
2013-01-18 00:37:00,85.0,60.0,30.01,ESE,112,0.0,25.0,43,0.00,,SKC,0.00,VWS V14.01,2013-01-18 06:37:00,
2013-01-18 00:38:00,85.0,60.7,30.01,ESE,112,0.0,25.0,44,0.00,,SKC,0.00,VWS V14.01,2013-01-18 06:38:00,
2013-01-18 00:39:00,85.0,60.7,30.01,ESE,112,1.0,25.0,44,0.00,,SKC,0.00,VWS V14.01,2013-01-18 06:39:00,
2013-01-18 00:40:00,37.0,33.2,30.38,ENE,67,1.0,15.0,86,0.00,,SKC,0.00,VWS V14.01,2013-01-18 06:40:00,
2013-01-18 00:45:00,36.0,31.9,30.38,ENE,67,0.0,15.0,85,0.00,,SKC,0.00,VWS V14.01,2013-01-18 06:45:00,
2013-01-18 00:50:00,36.0,32.2,30.38,ENE,67,1.0,15.0,86,0.00,,SKC,0.00,VWS V14.01,2013-01-18 06:50:00,
2013-01-18 00:55:00,36.0,32.2,30.38,ENE,67,1.0,15.0,86,0.00,,SKC,0.00,VWS V14.01,2013-01-18 06:55:00,
2013-01-18 01:00:00,37.0,32.9,30.38,ENE,67,1.0,15.0,85,0.00,,SKC,0.00,VWS V14.01,2013-01-18 07:00:00,
2013-01-18 01:05:00,37.0,32.6,30.37,ENE,67,0.0,15.0,84,0.00,,SKC,0.00,VWS V14.01,2013-01-18 07:05:00,
2013-01-18 01:10:00,36.0,31.6,30.37,ENE,67,0.0,15.0,84,0.00,,SKC,0.00,VWS V14.01,2013-01-18 07:10:00,
2013-01-18 01:15:00,36.0,31.4,30.37,ENE,67,0.0,15.0,83,0.00,,SKC,0.00,VWS V14.01,2013-01-18 07:15:00,
2013-01-18 01:20:00,35.0,31.2,30.37,ENE,67,0.0,15.0,86,0.00,,SKC,0.00,VWS V14.01,2013-01-18 07:20:00,
2013-01-18 01:25:00,35.0,31.5,30.37,ENE,67,0.0,15.0,87,0.00,,SKC,0.00,VWS V14.01,2013-01-18 07:25:00,
2013-01-18 01:27:00,59.0,36.0,28.04,South,180,5.0,19.0,42,1.27,,SKC,0.00,VWS V15.00,2013-01-18 07:27:00,
2013-01-18 01:28:00,59.0,36.6,28.04,South,180,6.0,19.0,43,1.27,,SKC,0.00,VWS V15.00,2013-01-18 07:28:00,
2013-01-18 01:29:00,59.0,36.6,28.04,South,180,4.0,19.0,43,1.27,,SKC,0.00,VWS V15.00,2013-01-18 07:29:00,
2013-01-18 01:30:00,35.0,31.2,30.37,ENE,67,0.0,15.0,86,0.00,,SKC,0.00,VWS V14.01,2013-01-18 07:30:00,
2013-01-18 01:31:00,59.0,35.3,28.04,SSW,202,4.0,19.0,41,1.27,,SKC,0.00,VWS V15.00,2013-01-18 07:31:00,
2013-01-18 01:32:00,58.0,35.1,28.04,SSW,202,1.0,19.0,42,1.27,,SKC,0.00,VWS V15.00,2013-01-18 07:32:00,
2013-01-18 01:33:00,58.0,35.7,28.04,SSW,202,6.0,19.0,43,1.27,,SKC,0.00,VWS V15.00,2013-01-18 07:33:00,
2013-01-18 01:34:00,59.0,36.0,28.03,SSW,202,7.0,19.0,42,1.27,,SKC,0.00,VWS V15.00,2013-01-18 07:34:00,
2013-01-18 01:35:00,35.0,31.5,30.37,ENE,67,0.0,15.0,87,0.00,,SKC,0.00,VWS V14.01,2013-01-18 07:35:00,
2013-01-18 01:36:00,58.0,34.5,28.03,SSW,202,8.0,19.0,41,1.27,,SKC,0.00,VWS V15.00,2013-01-18 07:36:00,
2013-01-18 01:37:00,58.0,35.1,28.03,South,180,2.0,19.0,42,1.27,,SKC,0.00,VWS V15.00,2013-01-18 07:37:00,
2013-01-18 01:38:00,58.0,35.1,28.03,South,180,4.0,19.0,42,1.27,,SKC,0.00,VWS V15.00,2013-01-18 07:38:00,
2013-01-18 01:39:00,58.0,35.1,28.03,ESE,112,5.0,19.0,42,1.27,,SKC,0.00,VWS V15.00,2013-01-18 07:39:00,
2013-01-18 01:40:00,35.0,32.1,30.37,SW,225,5.0,15.0,89,0.00,,SKC,0.00,VWS V14.01,2013-01-18 07:40:00,
2013-01-18 01:41:00,58.0,35.7,28.03,South,180,5.0,19.0,43,1.27,,SKC,0.00,VWS V15.00,2013-01-18 07:41:00,
2013-01-18 01:45:00,35.0,32.4,30.37,SW,225,4.0,15.0,90,0.00,,SKC,0.00,VWS V14.01,2013-01-18 07:45:00,
2013-01-18 01:48:00,42.0,33.3,29.68,West,270,15.0,15.0,71,0.44,,SKC,0.01,VWS V14.01,2013-01-18 07:48:00,
2013-01-18 01:49:00,42.0,32.6,29.68,West,270,13.0,22.0,69,0.44,,SKC,0.01,VWS V14.01,2013-01-18 07:49:00,
2013-01-18 01:50:00,34.0,31.1,30.37,SW,225,4.0,15.0,89,0.00,,SKC,0.00,VWS V14.01,2013-01-18 07:50:00,
2013-01-18 01:51:00,42.0,32.2,29.68,WNW,292,10.0,27.0,68,0.44,,SKC,0.01,VWS V14.01,2013-01-18 07:51:00,
2013-01-18 01:55:00,34.0,31.6,30.37,SW,225,4.0,15.0,91,0.00,,SKC,0.00,VWS V14.01,2013-01-18 07:55:00,
2013-01-18 02:00:00,33.0,30.7,30.37,SW,225,1.0,15.0,91,0.00,,SKC,0.00,VWS V14.01,2013-01-18 08:00:00,
2013-01-18 02:05:00,33.0,30.7,30.37,SW,225,0.0,15.0,91,0.00,,SKC,0.00,VWS V14.01,2013-01-18 08:05:00,
2013-01-18 02:10:00,32.0,29.7,30.37,SW,225,0.0,15.0,91,0.00,,SKC,0.00,VWS V14.01,2013-01-18 08:10:00,
2013-01-18 02:15:00,31.0,29.7,30.37,SW,225,0.0,15.0,95,0.00,,SKC,0.00,VWS V14.01,2013-01-18 08:15:00,
2013-01-18 02:20:00,31.0,30.2,30.36,SW,225,0.0,15.0,97,0.00,,SKC,0.00,VWS V14.01,2013-01-18 08:20:00,
2013-01-18 02:24:00,81.0,61.7,29.99,South,180,5.0,36.0,52,1.91,,SKC,0.00,VWS V14.01,2013-01-18 08:24:00,
2013-01-18 02:25:00,30.0,29.5,30.36,SW,225,0.0,15.0,98,0.00,,SKC,0.00,VWS V14.01,2013-01-18 08:25:00,
2013-01-18 02:26:00,81.0,61.7,29.99,SSE,157,0.0,36.0,52,1.91,,SKC,0.00,VWS V14.01,2013-01-18 08:26:00,
2013-01-18 02:27:00,81.0,61.7,29.99,SE,135,3.0,36.0,52,1.91,,SKC,0.00,VWS V14.01,2013-01-18 08:27:00,
2013-01-18 02:28:00,81.0,61.7,29.99,SSE,157,0.0,36.0,52,1.91,,SKC,0.00,VWS V14.01,2013-01-18 08:28:00,
2013-01-18 02:29:00,70.0,61.0,29.65,SW,225,8.0,24.0,73,0.00,,SKC,0.00,VWS V14.01,2013-01-18 08:29:00,
2013-01-18 02:30:00,30.0,30.0,30.36,SW,225,0.0,15.0,100,0.00,,SKC,0.00,VWS V14.01,2013-01-18 08:30:00,
2013-01-18 02:31:00,69.0,60.0,29.65,SW,225,7.0,24.0,73,0.00,,SKC,0.00,VWS V14.01,2013-01-18 08:31:00,
2013-01-18 02:32:00,69.0,60.0,29.65,SSW,202,9.0,24.0,73,0.00,,SKC,0.00,VWS V14.01,2013-01-18 08:32:00,
2013-01-18 02:33:00,69.0,60.0,29.65,SW,225,12.0,24.0,73,0.00,,SKC,0.00,VWS V14.01,2013-01-18 08:33:00,
2013-01-18 02:34:00,70.0,61.0,29.65,SW,225,7.0,24.0,73,0.00,,SKC,0.00,VWS V14.01,2013-01-18 08:34:00,
2013-01-18 02:35:00,30.0,30.0,30.36,SW,225,0.0,15.0,100,0.00,,SKC,0.00,VWS V14.01,2013-01-18 08:35:00,
2013-01-18 02:36:00,69.0,60.4,29.65,SSW,202,6.0,24.0,74,0.00,,SKC,0.00,VWS V14.01,2013-01-18 08:36:00,
2013-01-18 02:40:00,30.0,30.0,30.36,SW,225,0.0,15.0,100,0.00,,SKC,0.00,VWS V14.01,2013-01-18 08:40:00,
2013-01-18 02:45:00,30.0,30.0,30.36,SW,225,0.0,15.0,100,0.00,,SKC,0.00,VWS V14.01,2013-01-18 08:45:00,
2013-01-18 02:50:00,30.0,30.0,30.35,SW,225,0.0,15.0,100,0.00,,SKC,0.00,VWS V14.01,2013-01-18 08:50:00,
2013-01-18 02:55:00,30.0,30.0,30.35,SW,225,0.0,15.0,100,0.00,,SKC,0.00,VWS V14.01,2013-01-18 08:55:00,
2013-01-18 03:00:00,29.0,29.0,30.35,SW,225,0.0,15.0,100,0.00,,SKC,0.00,VWS V14.01,2013-01-18 09:00:00,
2013-01-18 03:05:00,29.0,29.0,30.35,SW,225,0.0,15.0,100,0.00,,SKC,0.00,VWS V14.01,2013-01-18 09:05:00,
2013-01-18 03:10:00,28.0,28.0,30.35,SW,225,0.0,15.0,100,0.00,,SKC,0.00,VWS V14.01,2013-01-18 09:10:00,
2013-01-18 03:15:00,29.0,29.0,30.35,SW,225,0.0,15.0,100,0.00,,SKC,0.00,VWS V14.01,2013-01-18 09:15:00,
2013-01-18 03:20:00,29.0,29.0,30.35,SW,225,0.0,15.0,100,0.00,,SKC,0.00,VWS V14.01,2013-01-18 09:20:00,
2013-01-18 03:25:00,29.0,29.0,30.35,SW,225,0.0,15.0,100,0.00,,SKC,0.00,VWS V14.01,2013-01-18 09:25:00,
2013-01-18 03:30:00,29.0,29.0,30.35,SW,225,0.0,15.0,100,0.00,,SKC,0.00,VWS V14.01,2013-01-18 09:30:00,
2013-01-18 03:35:00,29.0,29.0,30.35,SW,225,0.0,15.0,100,0.00,,SKC,0.00,VWS V14.01,2013-01-18 09:35:00,
2013-01-18 03:40:00,29.0,29.0,30.35,SW,225,0.0,15.0,100,0.00,,SKC,0.00,VWS V14.01,2013-01-18 09:40:00,
2013-01-18 03:45:00,29.0,29.0,30.35,SW,225,1.0,15.0,100,0.00,,SKC,0.00,VWS V14.01,2013-01-18 09:45:00,
2013-01-18 03:50:00,29.0,29.0,30.35,SW,225,2.0,15.0,100,0.00,,SKC,0.00,VWS V14.01,2013-01-18 09:50:00,
2013-01-18 03:55:00,30.0,30.0,30.35,SW,225,2.0,15.0,100,0.00,,SKC,0.00,VWS V14.01,2013-01-18 09:55:00,
2013-01-18 04:00:00,29.0,29.0,30.35,SW,225,0.0,15.0,100,0.00,,SKC,0.00,VWS V14.01,2013-01-18 10:00:00,
2013-01-18 04:05:00,29.0,29.0,30.35,SW,225,0.0,15.0,100,0.00,,SKC,0.00,VWS V14.01,2013-01-18 10:05:00,
2013-01-18 04:10:00,29.0,29.0,30.35,SW,225,0.0,15.0,100,0.00,,SKC,0.00,VWS V14.01,2013-01-18 10:10:00,
2013-01-18 04:15:00,28.0,28.0,30.34,SW,225,0.0,15.0,100,0.00,,SKC,0.00,VWS V14.01,2013-01-18 10:15:00,
2013-01-18 04:20:00,28.0,28.0,30.34,SW,225,0.0,15.0,100,0.00,,SKC,0.00,VWS V14.01,2013-01-18 10:20:00,
2013-01-18 04:24:00,76.0,64.3,29.97,SE,135,3.0,36.0,67,1.91,,SKC,0.00,VWS V14.01,2013-01-18 10:24:00,
2013-01-18 04:25:00,27.0,27.0,30.34,SW,225,0.0,15.0,100,0.00,,SKC,0.00,VWS V14.01,2013-01-18 10:25:00,
2013-01-18 04:26:00,75.0,63.3,29.97,SE,135,6.0,36.0,67,1.91,,SKC,0.00,VWS V14.01,2013-01-18 10:26:00,
2013-01-18 04:27:00,75.0,63.3,29.97,ESE,112,3.0,36.0,67,1.91,,SKC,0.00,VWS V14.01,2013-01-18 10:27:00,
2013-01-18 04:28:00,75.0,63.3,29.97,ESE,112,1.0,36.0,67,1.91,,SKC,0.00,VWS V14.01,2013-01-18 10:28:00,
2013-01-18 04:29:00,75.0,63.3,29.97,ESE,112,0.0,36.0,67,1.91,,SKC,0.00,VWS V14.01,2013-01-18 10:29:00,
2013-01-18 04:30:00,27.0,27.0,30.34,SW,225,0.0,15.0,100,0.00,,SKC,0.00,VWS V14.01,2013-01-18 10:30:00,
2013-01-18 04:35:00,27.0,27.0,30.33,SW,225,0.0,15.0,100,0.00,,SKC,0.00,VWS V14.01,2013-01-18 10:35:00,
2013-01-18 04:40:00,26.0,26.0,30.33,SW,225,0.0,15.0,100,0.00,,SKC,0.00,VWS V14.01,2013-01-18 10:40:00,
2013-01-18 04:45:00,26.0,26.0,30.33,SW,225,0.0,15.0,100,0.00,,SKC,0.00,VWS V14.01,2013-01-18 10:45:00,
2013-01-18 04:50:00,26.0,26.0,30.33,SW,225,0.0,15.0,100,0.00,,SKC,0.00,VWS V14.01,2013-01-18 10:50:00,
2013-01-18 04:55:00,26.0,26.0,30.33,SW,225,0.0,15.0,100,0.00,,SKC,0.00,VWS V14.01,2013-01-18 10:55:00,
2013-01-18 05:00:00,26.0,26.0,30.33,SW,225,0.0,15.0,100,0.00,,SKC,0.00,VWS V14.01,2013-01-18 11:00:00,
2013-01-18 05:05:00,26.0,26.0,30.32,SW,225,0.0,15.0,100,0.00,,SKC,0.00,VWS V14.01,2013-01-18 11:05:00,
2013-01-18 05:10:00,26.0,26.0,30.32,SW,225,0.0,15.0,100,0.00,,SKC,0.00,VWS V14.01,2013-01-18 11:10:00,
2013-01-18 05:15:00,26.0,26.0,30.33,SW,225,0.0,15.0,100,0.00,,SKC,0.00,VWS V14.01,2013-01-18 11:15:00,
2013-01-18 05:20:00,25.0,25.0,30.33,SW,225,0.0,15.0,100,0.00,,SKC,0.00,VWS V14.01,2013-01-18 11:20:00,
2013-01-18 05:25:00,25.0,25.0,30.33,SW,225,0.0,15.0,100,0.00,,SKC,0.00,VWS V14.01,2013-01-18 11:25:00,
2013-01-18 05:30:00,25.0,25.0,30.33,SW,225,0.0,15.0,100,0.00,,SKC,0.00,VWS V14.01,2013-01-18 11:30:00,
2013-01-18 05:35:00,25.0,25.0,30.32,SW,225,0.0,15.0,100,0.00,,SKC,0.00,VWS V14.01,2013-01-18 11:35:00,
2013-01-18 05:40:00,25.0,25.0,30.32,SW,225,0.0,15.0,100,0.00,,SKC,0.00,VWS V14.01,2013-01-18 11:40:00,
2013-01-18 05:45:00,25.0,25.0,30.32,SW,225,0.0,15.0,100,0.00,,SKC,0.00,VWS V14.01,2013-01-18 11:45:00,
2013-01-18 05:50:00,25.0,25.0,30.32,SW,225,0.0,15.0,100,0.00,,SKC,0.00,VWS V14.01,2013-01-18 11:50:00,
2013-01-18 05:55:00,25.0,25.0,30.32,SW,225,0.0,15.0,100,0.00,,SKC,0.00,VWS V14.01,2013-01-18 11:55:00,
2013-01-18 06:00:00,25.0,25.0,30.32,SW,225,0.0,15.0,100,0.00,,SKC,0.00,VWS V14.01,2013-01-18 12:00:00,
2013-01-18 06:05:00,25.0,25.0,30.32,SW,225,0.0,15.0,100,0.00,,SKC,0.00,VWS V14.01,2013-01-18 12:05:00,
2013-01-18 06:10:00,25.0,25.0,30.32,SW,225,0.0,15.0,100,0.00,,SKC,0.00,VWS V14.01,2013-01-18 12:10:00,
2013-01-18 06:13:00,60.0,60.0,30.07,West,270,5.0,25.0,100,0.48,,SKC,0.06,VWS V14.01,2013-01-18 12:13:00,
2013-01-18 06:14:00,60.0,60.0,30.07,West,270,5.0,25.0,100,0.48,,SKC,0.06,VWS V14.01,2013-01-18 12:14:00,
2013-01-18 06:15:00,24.0,24.0,30.32,SW,225,0.0,15.0,100,0.00,,SKC,0.00,VWS V14.01,2013-01-18 12:15:00,
2013-01-18 06:16:00,60.0,60.0,30.07,WSW,247,5.0,25.0,100,0.48,,SKC,0.06,VWS V14.01,2013-01-18 12:16:00,
2013-01-18 06:17:00,60.0,60.0,30.08,WSW,247,4.0,25.0,100,0.48,,SKC,0.06,VWS V14.01,2013-01-18 12:17:00,
2013-01-18 06:18:00,60.0,60.0,30.08,West,270,6.0,25.0,100,0.48,,SKC,0.06,VWS V14.01,2013-01-18 12:18:00,
2013-01-18 06:19:00,60.0,60.0,30.08,SW,225,4.0,25.0,100,0.48,,SKC,0.06,VWS V14.01,2013-01-18 12:19:00,
2013-01-18 06:20:00,24.0,24.0,30.32,SW,225,0.0,15.0,100,0.00,,SKC,0.00,VWS V14.01,2013-01-18 12:20:00,
2013-01-18 06:25:00,24.0,24.0,30.32,SW,225,0.0,15.0,100,0.00,,SKC,0.00,VWS V14.01,2013-01-18 12:25:00,
2013-01-18 06:30:00,24.0,24.0,30.32,SW,225,0.0,15.0,100,0.00,,SKC,0.00,VWS V14.01,2013-01-18 12:30:00,
2013-01-18 06:31:00,41.0,33.7,29.72,NW,315,19.0,19.0,75,0.48,,SKC,0.05,VWS V14.01,2013-01-18 12:31:00,
2013-01-18 06:32:00,41.0,33.7,29.72,NNW,337,13.0,24.0,75,0.48,,SKC,0.05,VWS V14.01,2013-01-18 12:32:00,
2013-01-18 06:33:00,40.0,33.1,29.72,WNW,292,14.0,24.0,76,0.48,,SKC,0.05,VWS V14.01,2013-01-18 12:33:00,
2013-01-18 06:34:00,41.0,33.7,29.72,NW,315,15.0,24.0,75,0.48,,SKC,0.05,VWS V14.01,2013-01-18 12:34:00,
2013-01-18 06:35:00,23.0,23.0,30.32,SW,225,0.0,15.0,100,0.00,,SKC,0.00,VWS V14.01,2013-01-18 12:35:00,
2013-01-18 06:40:00,23.0,23.0,30.32,SW,225,0.0,15.0,100,0.00,,SKC,0.00,VWS V14.01,2013-01-18 12:40:00,
2013-01-18 06:45:00,23.0,23.0,30.32,SW,225,0.0,15.0,100,0.00,,SKC,0.00,VWS V14.01,2013-01-18 12:45:00,
2013-01-18 06:50:00,24.0,24.0,30.32,SW,225,0.0,15.0,100,0.00,,SKC,0.00,VWS V14.01,2013-01-18 12:50:00,
2013-01-18 06:55:00,23.0,23.0,30.32,SW,225,0.0,15.0,100,0.00,,SKC,0.00,VWS V14.01,2013-01-18 12:55:00,
2013-01-18 07:00:00,23.0,23.0,30.32,SW,225,0.0,15.0,100,0.00,,SKC,0.00,VWS V14.01,2013-01-18 13:00:00,
2013-01-18 07:05:00,23.0,23.0,30.32,SW,225,0.0,15.0,100,0.00,,SKC,0.00,VWS V14.01,2013-01-18 13:05:00,
2013-01-18 07:10:00,23.0,23.0,30.32,SW,225,0.0,15.0,100,0.00,,SKC,0.00,VWS V14.01,2013-01-18 13:10:00,
2013-01-18 07:15:00,24.0,24.0,30.32,SW,225,0.0,15.0,100,0.00,,SKC,0.00,VWS V14.01,2013-01-18 13:15:00,
2013-01-18 07:20:00,23.0,23.0,30.32,SW,225,0.0,15.0,100,0.00,,SKC,0.00,VWS V14.01,2013-01-18 13:20:00,
2013-01-18 07:24:00,47.0,47.0,30.13,North,360,0.0,23.0,100,0.00,,SKC,0.00,VWS V14.01,2013-01-18 13:24:00,
2013-01-18 07:25:00,23.0,23.0,30.32,SW,225,0.0,15.0,100,0.00,,SKC,0.00,VWS V14.01,2013-01-18 13:25:00,
2013-01-18 07:26:00,67.0,67.0,29.85,South,180,4.0,6.0,100,0.00,,SKC,0.00,VWS V14.01,2013-01-18 13:26:00,
2013-01-18 07:27:00,67.0,67.0,29.85,South,180,3.0,9.0,100,0.00,,SKC,0.00,VWS V14.01,2013-01-18 13:27:00,
2013-01-18 07:28:00,47.0,47.0,30.13,North,360,1.0,23.0,100,0.00,,SKC,0.00,VWS V14.01,2013-01-18 13:28:00,
2013-01-18 07:29:00,67.0,67.0,29.85,SW,225,6.0,9.0,100,0.00,,SKC,0.00,VWS V14.01,2013-01-18 13:29:00,
2013-01-18 07:30:00,23.0,23.0,30.32,SW,225,0.0,15.0,100,0.00,,SKC,0.00,VWS V14.01,2013-01-18 13:30:00,
2013-01-18 07:31:00,67.0,67.0,29.85,SSE,157,4.0,4.0,100,0.00,,SKC,0.00,VWS V14.01,2013-01-18 13:31:00,
2013-01-18 07:32:00,67.0,67.0,29.85,SW,225,4.0,4.0,100,0.00,,SKC,0.00,VWS V14.01,2013-01-18 13:32:00,
2013-01-18 07:33:00,44.0,33.4,27.97,South,180,2.0,19.0,66,1.27,,SKC,0.00,VWS V15.00,2013-01-18 13:33:00,
2013-01-18 07:34:00,65.0,54.2,30.03,East,90,2.0,36.0,68,0.32,,SKC,0.00,VWS V14.01,2013-01-18 13:34:00,
2013-01-18 07:35:00,23.0,23.0,30.31,SW,225,0.0,15.0,100,0.00,,SKC,0.00,VWS V14.01,2013-01-18 13:35:00,
2013-01-18 07:36:00,65.0,54.6,30.03,East,90,5.0,36.0,69,0.32,,SKC,0.00,VWS V14.01,2013-01-18 13:36:00,
2013-01-18 07:37:00,65.0,54.6,30.03,East,90,6.0,36.0,69,0.32,,SKC,0.00,VWS V14.01,2013-01-18 13:37:00,
2013-01-18 07:38:00,65.0,54.6,30.03,East,90,7.0,36.0,69,0.32,,SKC,0.00,VWS V14.01,2013-01-18 13:38:00,
2013-01-18 07:39:00,66.0,55.2,30.02,East,90,6.0,36.0,68,0.32,,SKC,0.00,VWS V14.01,2013-01-18 13:39:00,
2013-01-18 07:40:00,23.0,23.0,30.31,SW,225,0.0,15.0,100,0.00,,SKC,0.00,VWS V14.01,2013-01-18 13:40:00,
2013-01-18 07:45:00,23.0,23.0,30.31,SW,225,0.0,15.0,100,0.00,,SKC,0.00,VWS V14.01,2013-01-18 13:45:00,
2013-01-18 07:50:00,23.0,23.0,30.30,SW,225,0.0,15.0,100,0.00,,SKC,0.00,VWS V14.01,2013-01-18 13:50:00,
2013-01-18 07:55:00,24.0,24.0,30.30,SW,225,0.0,15.0,100,0.00,,SKC,0.00,VWS V14.01,2013-01-18 13:55:00,
2013-01-18 08:00:00,24.0,24.0,30.30,SW,225,0.0,15.0,100,0.00,,SKC,0.00,VWS V14.01,2013-01-18 14:00:00,
2013-01-18 08:05:00,24.0,24.0,30.30,SW,225,0.0,15.0,100,0.00,,SKC,0.00,VWS V14.01,2013-01-18 14:05:00,
2013-01-18 08:10:00,25.0,25.0,30.30,SW,225,0.0,15.0,100,0.00,,SKC,0.00,VWS V14.01,2013-01-18 14:10:00,
2013-01-18 08:15:00,25.0,25.0,30.31,SW,225,0.0,15.0,100,0.00,,SKC,0.00,VWS V14.01,2013-01-18 14:15:00,
2013-01-18 08:20:00,26.0,26.0,30.30,SW,225,0.0,15.0,100,0.00,,SKC,0.00,VWS V14.01,2013-01-18 14:20:00,
2013-01-18 08:25:00,27.0,27.0,30.31,SW,225,0.0,15.0,100,0.00,,SKC,0.00,VWS V14.01,2013-01-18 14:25:00,
2013-01-18 08:26:00,66.0,66.0,29.84,SSE,157,4.0,9.0,100,0.00,,SKC,0.00,VWS V14.01,2013-01-18 14:26:00,
2013-01-18 08:27:00,66.0,66.0,29.84,South,180,2.0,10.0,100,0.00,,SKC,0.00,VWS V14.01,2013-01-18 14:27:00,
2013-01-18 08:28:00,66.0,66.0,29.84,SSE,157,5.0,5.0,100,0.00,,SKC,0.00,VWS V14.01,2013-01-18 14:28:00,
2013-01-18 08:29:00,66.0,66.0,29.84,SE,135,9.0,10.0,100,0.00,,SKC,0.00,VWS V14.01,2013-01-18 14:29:00,
2013-01-18 08:30:00,28.0,28.0,30.32,SW,225,0.0,15.0,100,0.00,,SKC,0.00,VWS V14.01,2013-01-18 14:30:00,
2013-01-18 08:31:00,66.0,66.0,29.84,SSW,202,2.0,4.0,100,0.00,,SKC,0.00,VWS V14.01,2013-01-18 14:31:00,
2013-01-18 08:32:00,66.0,66.0,29.84,SE,135,2.0,3.0,100,0.00,,SKC,0.00,VWS V14.01,2013-01-18 14:32:00,
2013-01-18 08:33:00,66.0,66.0,29.84,SE,135,7.0,12.0,100,0.00,,SKC,0.00,VWS V14.01,2013-01-18 14:33:00,
2013-01-18 08:34:00,66.0,66.0,29.83,ESE,112,3.0,4.0,100,0.00,,SKC,0.00,VWS V14.01,2013-01-18 14:34:00,
2013-01-18 08:35:00,29.0,29.0,30.32,SW,225,0.0,15.0,100,0.00,,SKC,0.00,VWS V14.01,2013-01-18 14:35:00,
2013-01-18 08:40:00,30.0,30.0,30.33,SW,225,0.0,15.0,100,0.00,,SKC,0.00,VWS V14.01,2013-01-18 14:40:00,
2013-01-18 08:45:00,31.0,31.0,30.33,SW,225,0.0,15.0,100,0.00,,SKC,0.00,VWS V14.01,2013-01-18 14:45:00,
2013-01-18 09:29:00,38.0,37.0,30.37,West,270,1.0,10.0,96,0.00,,SKC,0.00,VWS V14.01,2013-01-18 15:29:00,
2013-01-18 09:34:00,38.0,36.7,30.38,West,270,2.0,10.0,95,0.00,,SKC,0.00,VWS V14.01,2013-01-18 15:34:00,
2013-01-18 09:39:00,39.0,37.4,30.38,West,270,4.0,10.0,94,0.00,,SKC,0.00,VWS V14.01,2013-01-18 15:39:00,
2013-01-18 09:44:00,39.0,36.9,30.38,West,270,3.0,10.0,92,0.00,,SKC,0.00,VWS V14.01,2013-01-18 15:44:00,
2013-01-18 09:47:00,42.0,29.5,27.95,SSW,202,5.0,19.0,61,1.27,,SKC,0.00,VWS V15.00,2013-01-18 15:47:00,
2013-01-18 09:48:00,42.0,29.5,27.95,SW,225,6.0,19.0,61,1.27,,SKC,0.00,VWS V15.00,2013-01-18 15:48:00,
2013-01-18 09:49:00,39.0,36.9,30.39,WNW,292,2.0,10.0,92,0.00,,SKC,0.00,VWS V14.01,2013-01-18 15:49:00,
2013-01-18 09:54:00,40.0,37.3,30.39,West,270,5.0,10.0,90,0.00,,SKC,0.00,VWS V14.01,2013-01-18 15:54:00,
2013-01-18 09:59:00,41.0,37.7,30.39,West,270,4.0,10.0,88,0.00,,SKC,0.00,VWS V14.01,2013-01-18 15:59:00,
2013-01-18 10:04:00,42.0,38.1,30.39,WSW,247,1.0,10.0,86,0.00,,SKC,0.00,VWS V14.01,2013-01-18 16:04:00,
2013-01-18 10:09:00,43.0,38.5,30.40,SW,225,2.0,10.0,84,0.00,,SKC,0.00,VWS V14.01,2013-01-18 16:09:00,
2013-01-18 10:14:00,44.0,38.5,30.40,SW,225,3.0,10.0,81,0.00,,SKC,0.00,VWS V14.01,2013-01-18 16:14:00,
2013-01-18 10:19:00,44.0,37.9,30.41,SW,225,4.0,10.0,79,0.00,,SKC,0.00,VWS V14.01,2013-01-18 16:19:00,
2013-01-18 10:24:00,45.0,37.9,30.41,WSW,247,4.0,10.0,76,0.00,,SKC,0.00,VWS V14.01,2013-01-18 16:24:00,
2013-01-18 10:29:00,46.0,38.2,30.41,SW,225,2.0,10.0,74,0.00,,SKC,0.00,VWS V14.01,2013-01-18 16:29:00,
2013-01-18 10:34:00,47.0,39.2,30.41,SW,225,6.0,10.0,74,0.00,,SKC,0.00,VWS V14.01,2013-01-18 16:34:00,
2013-01-18 10:39:00,47.0,38.8,30.41,SSW,202,3.0,10.0,73,0.00,,SKC,0.00,VWS V14.01,2013-01-18 16:39:00,
2013-01-18 10:44:00,48.0,38.0,30.41,SW,225,4.0,10.0,68,0.00,,SKC,0.00,VWS V14.01,2013-01-18 16:44:00,
2013-01-18 10:49:00,49.0,38.5,30.41,South,180,3.0,10.0,67,0.00,,SKC,0.00,VWS V14.01,2013-01-18 16:49:00,
2013-01-18 10:54:00,51.0,38.9,30.41,SW,225,2.0,10.0,63,0.00,,SKC,0.00,VWS V14.01,2013-01-18 16:54:00,
2013-01-18 10:59:00,52.0,39.0,30.41,SSW,202,3.0,10.0,61,0.00,,SKC,0.00,VWS V14.01,2013-01-18 16:59:00,
2013-01-18 11:04:00,53.0,39.5,30.41,South,180,2.0,10.0,60,0.00,,SKC,0.00,VWS V14.01,2013-01-18 17:04:00,
2013-01-18 11:09:00,55.0,38.7,30.41,SW,225,9.0,10.0,54,0.00,,SKC,0.00,VWS V14.01,2013-01-18 17:09:00,
2013-01-18 11:14:00,54.0,37.3,30.41,South,180,4.0,12.0,53,0.00,,SKC,0.00,VWS V14.01,2013-01-18 17:14:00,
2013-01-18 11:19:00,56.0,38.2,30.41,South,180,5.0,12.0,51,0.00,,SKC,0.00,VWS V14.01,2013-01-18 17:19:00,
2013-01-18 11:20:00,41.0,31.3,29.86,West,270,11.0,16.0,68,0.48,,SKC,0.05,VWS V14.01,2013-01-18 17:20:00,
2013-01-18 11:24:00,56.0,37.1,30.41,SSE,157,9.0,12.0,49,0.00,,SKC,0.00,VWS V14.01,2013-01-18 17:24:00,
2013-01-18 11:29:00,57.0,37.0,30.41,SW,225,7.0,15.0,47,0.00,,SKC,0.00,VWS V14.01,2013-01-18 17:29:00,
2013-01-18 11:34:00,57.0,36.4,30.41,South,180,4.0,15.0,46,0.00,,SKC,0.00,VWS V14.01,2013-01-18 17:34:00,
2013-01-18 11:35:00,40.0,30.7,29.87,WNW,292,13.0,16.0,69,0.48,,SKC,0.05,VWS V14.01,2013-01-18 17:35:00,
2013-01-18 11:36:00,40.0,30.7,29.87,NNW,337,6.0,16.0,69,0.48,,SKC,0.05,VWS V14.01,2013-01-18 17:36:00,
2013-01-18 11:37:00,40.0,30.3,29.86,NNW,337,6.0,16.0,68,0.48,,SKC,0.05,VWS V14.01,2013-01-18 17:37:00,
2013-01-18 11:38:00,40.0,30.7,29.86,NW,315,9.0,16.0,69,0.48,,SKC,0.05,VWS V14.01,2013-01-18 17:38:00,
2013-01-18 11:39:00,57.0,36.4,30.40,ESE,112,7.0,15.0,46,0.00,,SKC,0.00,VWS V14.01,2013-01-18 17:39:00,
2013-01-18 11:44:00,58.0,36.8,30.40,South,180,6.0,15.0,45,0.00,,SKC,0.00,VWS V14.01,2013-01-18 17:44:00,
2013-01-18 11:49:00,59.0,37.7,30.40,South,180,4.0,15.0,45,0.00,,SKC,0.00,VWS V14.01,2013-01-18 17:49:00,
2013-01-18 11:54:00,59.0,37.1,30.40,SSE,157,7.0,15.0,44,0.00,,SKC,0.00,VWS V14.01,2013-01-18 17:54:00,
2013-01-18 11:59:00,59.0,37.1,30.39,SSW,202,7.0,15.0,44,0.00,,SKC,0.00,VWS V14.01,2013-01-18 17:59:00,
2013-01-18 12:04:00,59.0,37.1,30.39,South,180,5.0,15.0,44,0.00,,SKC,0.00,VWS V14.01,2013-01-18 18:04:00,
2013-01-18 12:09:00,60.0,38.0,30.39,South,180,3.0,15.0,44,0.00,,SKC,0.00,VWS V14.01,2013-01-18 18:09:00,
2013-01-18 12:14:00,60.0,38.0,30.38,South,180,3.0,15.0,44,0.00,,SKC,0.00,VWS V14.01,2013-01-18 18:14:00,
2013-01-18 12:16:00,58.0,57.7,30.13,WSW,247,2.0,25.0,99,0.64,,SKC,0.22,VWS V14.01,2013-01-18 18:16:00,
2013-01-18 12:17:00,58.0,57.7,30.13,WSW,247,1.0,25.0,99,0.64,,SKC,0.22,VWS V14.01,2013-01-18 18:17:00,
2013-01-18 12:18:00,57.0,56.7,30.13,West,270,3.0,25.0,99,0.64,,SKC,0.22,VWS V14.01,2013-01-18 18:18:00,
2013-01-18 12:19:00,61.0,37.2,30.38,SSW,202,8.0,15.0,41,0.00,,SKC,0.00,VWS V14.01,2013-01-18 18:19:00,
2013-01-18 12:20:00,57.0,57.0,30.13,WSW,247,2.0,25.0,100,0.64,,SKC,0.22,VWS V14.01,2013-01-18 18:20:00,
2013-01-18 12:21:00,57.0,57.0,30.13,WSW,247,2.0,25.0,100,0.64,,SKC,0.22,VWS V14.01,2013-01-18 18:21:00,
2013-01-18 12:24:00,61.0,37.8,30.38,SW,225,6.0,15.0,42,0.00,,SKC,0.00,VWS V14.01,2013-01-18 18:24:00,
2013-01-18 12:29:00,62.0,38.0,30.37,South,180,7.0,15.0,41,0.00,,SKC,0.00,VWS V14.01,2013-01-18 18:29:00,
2013-01-18 12:34:00,62.0,37.4,30.37,SSW,202,8.0,15.0,40,0.00,,SKC,0.00,VWS V14.01,2013-01-18 18:34:00,
2013-01-18 12:39:00,61.0,36.5,30.37,SSW,202,4.0,15.0,40,0.00,,SKC,0.00,VWS V14.01,2013-01-18 18:39:00,
2013-01-18 12:44:00,62.0,37.4,30.36,South,180,6.0,15.0,40,0.00,,SKC,0.00,VWS V14.01,2013-01-18 18:44:00,
2013-01-18 12:49:00,62.0,36.8,30.36,SW,225,11.0,15.0,39,0.00,,SKC,0.00,VWS V14.01,2013-01-18 18:49:00,
2013-01-18 12:54:00,61.0,36.5,30.36,SSE,157,3.0,15.0,40,0.00,,SKC,0.00,VWS V14.01,2013-01-18 18:54:00,
2013-01-18 12:59:00,62.0,37.4,30.35,SSE,157,5.0,15.0,40,0.00,,SKC,0.00,VWS V14.01,2013-01-18 18:59:00,
2013-01-18 13:04:00,63.0,37.7,30.35,SSW,202,7.0,15.0,39,0.00,,SKC,0.00,VWS V14.01,2013-01-18 19:04:00,
2013-01-18 13:05:00,38.0,30.1,29.87,WNW,292,7.0,16.0,73,0.48,,SKC,0.05,VWS V14.01,2013-01-18 19:05:00,
2013-01-18 13:06:00,38.0,30.1,29.87,West,270,4.0,16.0,73,0.48,,SKC,0.05,VWS V14.01,2013-01-18 19:06:00,
2013-01-18 13:07:00,38.0,29.8,29.87,West,270,6.0,16.0,72,0.48,,SKC,0.05,VWS V14.01,2013-01-18 19:07:00,
2013-01-18 13:08:00,38.0,29.8,29.87,WNW,292,6.0,16.0,72,0.48,,SKC,0.05,VWS V14.01,2013-01-18 19:08:00,
2013-01-18 13:09:00,63.0,37.0,30.35,South,180,6.0,15.0,38,0.00,,SKC,0.00,VWS V14.01,2013-01-18 19:09:00,
2013-01-18 13:14:00,63.0,37.0,30.35,South,180,6.0,15.0,38,0.00,,SKC,0.00,VWS V14.01,2013-01-18 19:14:00,
2013-01-18 13:19:00,63.0,37.0,30.34,ESE,112,5.0,15.0,38,0.00,,SKC,0.00,VWS V14.01,2013-01-18 19:19:00,
2013-01-18 13:24:00,64.0,37.2,30.34,SSE,157,3.0,15.0,37,0.00,,SKC,0.00,VWS V14.01,2013-01-18 19:24:00,
2013-01-18 13:29:00,63.0,36.3,30.34,East,90,7.0,15.0,37,0.00,,SKC,0.00,VWS V14.01,2013-01-18 19:29:00,
2013-01-18 13:34:00,63.0,36.3,30.33,SSW,202,7.0,15.0,37,0.00,,SKC,0.00,VWS V14.01,2013-01-18 19:34:00,
2013-01-18 13:39:00,64.0,37.2,30.33,SSW,202,9.0,15.0,37,0.00,,SKC,0.00,VWS V14.01,2013-01-18 19:39:00,
2013-01-18 13:44:00,63.0,36.3,30.33,WSW,247,7.0,15.0,37,0.00,,SKC,0.00,VWS V14.01,2013-01-18 19:44:00,
2013-01-18 13:49:00,63.0,35.7,30.32,South,180,6.0,15.0,36,0.00,,SKC,0.00,VWS V14.01,2013-01-18 19:49:00,
2013-01-18 13:54:00,64.0,36.5,30.32,WSW,247,7.0,15.0,36,0.00,,SKC,0.00,VWS V14.01,2013-01-18 19:54:00,
2013-01-18 13:55:00,37.0,29.8,29.86,WNW,292,4.0,16.0,75,0.48,,SKC,0.05,VWS V14.01,2013-01-18 19:55:00,
2013-01-18 13:56:00,37.0,29.8,29.86,WNW,292,5.0,16.0,75,0.48,,SKC,0.05,VWS V14.01,2013-01-18 19:56:00,
2013-01-18 13:57:00,37.0,29.8,29.86,WNW,292,6.0,16.0,75,0.48,,SKC,0.05,VWS V14.01,2013-01-18 19:57:00,
2013-01-18 13:59:00,64.0,36.5,30.32,SSW,202,7.0,15.0,36,0.00,,SKC,0.00,VWS V14.01,2013-01-18 19:59:00,
2013-01-18 14:04:00,64.0,36.5,30.31,SSW,202,3.0,15.0,36,0.00,,SKC,0.00,VWS V14.01,2013-01-18 20:04:00,
2013-01-18 14:09:00,64.0,35.8,30.31,SW,225,7.0,15.0,35,0.00,,SKC,0.00,VWS V14.01,2013-01-18 20:09:00,
2013-01-18 14:14:00,64.0,35.8,30.31,SSW,202,5.0,15.0,35,0.00,,SKC,0.00,VWS V14.01,2013-01-18 20:14:00,
2013-01-18 14:19:00,65.0,36.7,30.31,South,180,7.0,15.0,35,0.00,,SKC,0.00,VWS V14.01,2013-01-18 20:19:00,
2013-01-18 14:24:00,65.0,36.0,30.31,South,180,10.0,15.0,34,0.00,,SKC,0.00,VWS V14.01,2013-01-18 20:24:00,
2013-01-18 14:29:00,65.0,36.0,30.31,South,180,8.0,15.0,34,0.00,,SKC,0.00,VWS V14.01,2013-01-18 20:29:00,
2013-01-18 14:30:00,79.0,68.0,30.09,South,180,0.0,24.0,69,0.00,,SKC,0.00,VWS V14.01,2013-01-18 20:30:00,
2013-01-18 14:31:00,79.0,68.0,30.09,South,180,0.0,24.0,69,0.00,,SKC,0.00,VWS V14.01,2013-01-18 20:31:00,
2013-01-18 14:32:00,79.0,68.0,30.09,South,180,0.0,24.0,69,0.00,,SKC,0.00,VWS V14.01,2013-01-18 20:32:00,
2013-01-18 14:33:00,79.0,68.0,30.09,South,180,1.0,24.0,69,0.00,,SKC,0.00,VWS V14.01,2013-01-18 20:33:00,
2013-01-18 14:34:00,65.0,36.0,30.31,SSE,157,6.0,15.0,34,0.00,,SKC,0.00,VWS V14.01,2013-01-18 20:34:00,
2013-01-18 14:39:00,65.0,35.2,30.30,SW,225,6.0,15.0,33,0.00,,SKC,0.00,VWS V14.01,2013-01-18 20:39:00,
2013-01-18 14:44:00,65.0,35.2,30.31,South,180,7.0,15.0,33,0.00,,SKC,0.00,VWS V14.01,2013-01-18 20:44:00,
2013-01-18 14:49:00,64.0,34.3,30.31,SSW,202,12.0,16.0,33,0.00,,SKC,0.00,VWS V14.01,2013-01-18 20:49:00,
2013-01-18 14:54:00,64.0,35.1,30.30,South,180,2.0,16.0,34,0.00,,SKC,0.00,VWS V14.01,2013-01-18 20:54:00,
2013-01-18 14:59:00,65.0,34.5,30.30,South,180,4.0,16.0,32,0.00,,SKC,0.00,VWS V14.01,2013-01-18 20:59:00,
2013-01-18 15:04:00,65.0,33.7,30.30,SW,225,9.0,16.0,31,0.00,,SKC,0.00,VWS V14.01,2013-01-18 21:04:00,
2013-01-18 15:09:00,64.0,32.8,30.30,SSW,202,8.0,16.0,31,0.00,,SKC,0.00,VWS V14.01,2013-01-18 21:09:00,
2013-01-18 15:14:00,65.0,34.5,30.30,SSE,157,7.0,16.0,32,0.00,,SKC,0.00,VWS V14.01,2013-01-18 21:14:00,
2013-01-18 15:19:00,65.0,34.5,30.30,SSE,157,4.0,16.0,32,0.00,,SKC,0.00,VWS V14.01,2013-01-18 21:19:00,
2013-01-18 15:20:00,90.0,74.8,30.03,South,180,6.0,36.0,61,1.91,,SKC,0.00,VWS V14.01,2013-01-18 21:20:00,
2013-01-18 15:21:00,90.0,75.2,30.03,SSW,202,9.0,36.0,62,1.91,,SKC,0.00,VWS V14.01,2013-01-18 21:21:00,
2013-01-18 15:22:00,90.0,74.8,30.03,South,180,8.0,36.0,61,1.91,,SKC,0.00,VWS V14.01,2013-01-18 21:22:00,
2013-01-18 15:23:00,90.0,74.8,30.03,SSW,202,2.0,36.0,61,1.91,,SKC,0.00,VWS V14.01,2013-01-18 21:23:00,
2013-01-18 15:24:00,65.0,32.8,30.30,SW,225,7.0,16.0,30,0.00,,SKC,0.00,VWS V14.01,2013-01-18 21:24:00,
2013-01-18 15:25:00,90.0,73.8,30.03,SSW,202,4.0,36.0,59,1.91,,SKC,0.00,VWS V14.01,2013-01-18 21:25:00,
2013-01-18 15:26:00,90.0,74.3,30.03,South,180,4.0,36.0,60,1.91,,SKC,0.00,VWS V14.01,2013-01-18 21:26:00,
2013-01-18 15:27:00,90.0,73.8,30.03,South,180,4.0,36.0,59,1.91,,SKC,0.00,VWS V14.01,2013-01-18 21:27:00,
2013-01-18 15:28:00,90.0,73.8,30.03,SSE,157,10.0,36.0,59,1.91,,SKC,0.00,VWS V14.01,2013-01-18 21:28:00,
2013-01-18 15:29:00,65.0,32.8,30.30,SSW,202,5.0,16.0,30,0.00,,SKC,0.00,VWS V14.01,2013-01-18 21:29:00,
2013-01-18 15:34:00,66.0,33.7,30.29,SSE,157,2.0,16.0,30,0.00,,SKC,0.00,VWS V14.01,2013-01-18 21:34:00,
2013-01-18 15:39:00,65.0,32.8,30.29,South,180,9.0,16.0,30,0.00,,SKC,0.00,VWS V14.01,2013-01-18 21:39:00,
2013-01-18 15:44:00,65.0,32.8,30.29,South,180,2.0,16.0,30,0.00,,SKC,0.00,VWS V14.01,2013-01-18 21:44:00,
2013-01-18 15:49:00,65.0,32.8,30.29,SSW,202,4.0,16.0,30,0.00,,SKC,0.00,VWS V14.01,2013-01-18 21:49:00,
2013-01-18 15:54:00,66.0,33.7,30.29,SSW,202,6.0,16.0,30,0.00,,SKC,0.00,VWS V14.01,2013-01-18 21:54:00,
2013-01-18 15:59:00,65.0,32.0,30.29,SE,135,7.0,16.0,29,0.00,,SKC,0.00,VWS V14.01,2013-01-18 21:59:00,
2013-01-18 16:04:00,65.0,32.8,30.29,SSW,202,7.0,16.0,30,0.00,,SKC,0.00,VWS V14.01,2013-01-18 22:04:00,
2013-01-18 16:09:00,65.0,32.0,30.29,SW,225,5.0,16.0,29,0.00,,SKC,0.00,VWS V14.01,2013-01-18 22:09:00,
2013-01-18 16:14:00,65.0,32.8,30.29,SW,225,8.0,16.0,30,0.00,,SKC,0.00,VWS V14.01,2013-01-18 22:14:00,
2013-01-18 16:19:00,64.0,32.0,30.28,SW,225,6.0,16.0,30,0.00,,SKC,0.00,VWS V14.01,2013-01-18 22:19:00,
2013-01-18 16:24:00,65.0,33.7,30.28,South,180,6.0,16.0,31,0.00,,SKC,0.00,VWS V14.01,2013-01-18 22:24:00,
2013-01-18 16:29:00,65.0,32.8,30.29,SSE,157,4.0,16.0,30,0.00,,SKC,0.00,VWS V14.01,2013-01-18 22:29:00,
2013-01-18 16:34:00,64.0,32.0,30.29,SW,225,6.0,16.0,30,0.00,,SKC,0.00,VWS V14.01,2013-01-18 22:34:00,
2013-01-18 16:39:00,64.0,32.8,30.29,SSW,202,0.0,16.0,31,0.00,,SKC,0.00,VWS V14.01,2013-01-18 22:39:00,
2013-01-18 16:44:00,64.0,32.8,30.29,South,180,4.0,16.0,31,0.00,,SKC,0.00,VWS V14.01,2013-01-18 22:44:00,
2013-01-18 16:49:00,64.0,32.8,30.28,SSW,202,6.0,16.0,31,0.00,,SKC,0.00,VWS V14.01,2013-01-18 22:49:00,
2013-01-18 16:54:00,64.0,32.8,30.28,SSE,157,2.0,16.0,31,0.00,,SKC,0.00,VWS V14.01,2013-01-18 22:54:00,
2013-01-18 16:59:00,63.0,31.9,30.28,SW,225,6.0,16.0,31,0.00,,SKC,0.00,VWS V14.01,2013-01-18 22:59:00,
2013-01-18 17:04:00,63.0,32.7,30.28,South,180,2.0,16.0,32,0.00,,SKC,0.00,VWS V14.01,2013-01-18 23:04:00,
2013-01-18 17:09:00,63.0,32.7,30.28,SW,225,2.0,16.0,32,0.00,,SKC,0.00,VWS V14.01,2013-01-18 23:09:00,
2013-01-18 17:14:00,63.0,31.9,30.27,South,180,4.0,16.0,31,0.00,,SKC,0.00,VWS V14.01,2013-01-18 23:14:00,
2013-01-18 17:19:00,62.0,31.0,30.27,South,180,6.0,16.0,31,0.00,,SKC,0.00,VWS V14.01,2013-01-18 23:19:00,
2013-01-18 17:24:00,62.0,30.2,30.27,South,180,4.0,16.0,30,0.00,,SKC,0.00,VWS V14.01,2013-01-18 23:24:00,
2013-01-18 17:29:00,62.0,31.0,30.27,South,180,3.0,16.0,31,0.00,,SKC,0.00,VWS V14.01,2013-01-18 23:29:00,
2013-01-18 17:34:00,61.0,30.2,30.27,SSW,202,5.0,16.0,31,0.00,,SKC,0.00,VWS V14.01,2013-01-18 23:34:00,
2013-01-18 17:39:00,61.0,30.2,30.26,SSE,157,6.0,16.0,31,0.00,,SKC,0.00,VWS V14.01,2013-01-18 23:39:00,
2013-01-18 17:44:00,60.0,30.8,30.26,South,180,3.0,16.0,33,0.00,,SKC,0.00,VWS V14.01,2013-01-18 23:44:00,
2013-01-18 17:49:00,59.0,30.0,30.26,South,180,2.0,16.0,33,0.00,,SKC,0.00,VWS V14.01,2013-01-18 23:49:00,
2013-01-18 17:54:00,59.0,30.7,30.25,South,180,2.0,16.0,34,0.00,,SKC,0.00,VWS V14.01,2013-01-18 23:54:00,
2013-01-18 17:59:00,58.0,30.5,30.25,SSE,157,4.0,16.0,35,0.00,,SKC,0.00,VWS V14.01,2013-01-18 23:59:00,
2013-01-18 18:04:00,57.0,30.3,30.25,SSW,202,3.0,16.0,36,0.00,,SKC,0.00,VWS V14.01,2013-01-19 00:04:00,
2013-01-18 18:09:00,57.0,30.3,30.25,South,180,1.0,16.0,36,0.00,,SKC,0.00,VWS V14.01,2013-01-19 00:09:00,
2013-01-18 18:14:00,56.0,30.1,30.25,South,180,2.0,16.0,37,0.00,,SKC,0.00,VWS V14.01,2013-01-19 00:14:00,
2013-01-18 18:19:00,56.0,30.8,30.25,South,180,1.0,16.0,38,0.00,,SKC,0.00,VWS V14.01,2013-01-19 00:19:00,
2013-01-18 18:24:00,55.0,30.5,30.24,South,180,2.0,16.0,39,0.00,,SKC,0.00,VWS V14.01,2013-01-19 00:24:00,
2013-01-18 18:29:00,55.0,30.5,30.24,SSW,202,1.0,16.0,39,0.00,,SKC,0.00,VWS V14.01,2013-01-19 00:29:00,
2013-01-18 18:34:00,54.0,29.6,30.24,SSW,202,1.0,16.0,39,0.00,,SKC,0.00,VWS V14.01,2013-01-19 00:34:00,
2013-01-18 18:39:00,54.0,30.9,30.24,SSW,202,1.0,16.0,41,0.00,,SKC,0.00,VWS V14.01,2013-01-19 00:39:00,
2013-01-18 18:44:00,53.0,30.0,30.24,SSW,202,2.0,16.0,41,0.00,,SKC,0.00,VWS V14.01,2013-01-19 00:44:00,
2013-01-18 18:49:00,52.0,29.6,30.24,SSW,202,2.0,16.0,42,0.00,,SKC,0.00,VWS V14.01,2013-01-19 00:49:00,
2013-01-18 18:54:00,52.0,30.2,30.24,SSW,202,1.0,16.0,43,0.00,,SKC,0.00,VWS V14.01,2013-01-19 00:54:00,
2013-01-18 18:59:00,52.0,30.8,30.23,SSW,202,1.0,16.0,44,0.00,,SKC,0.00,VWS V14.01,2013-01-19 00:59:00,
2013-01-18 19:04:00,51.0,29.9,30.23,SSW,202,1.0,16.0,44,0.00,,SKC,0.00,VWS V14.01,2013-01-19 01:04:00,
2013-01-18 19:09:00,51.0,29.9,30.23,SSW,202,1.0,16.0,44,0.00,,SKC,0.00,VWS V14.01,2013-01-19 01:09:00,
2013-01-18 19:14:00,51.0,30.4,30.23,SSW,202,0.0,16.0,45,0.00,,SKC,0.00,VWS V14.01,2013-01-19 01:14:00,
2013-01-18 19:19:00,50.0,30.0,30.23,SSW,202,0.0,16.0,46,0.00,,SKC,0.00,VWS V14.01,2013-01-19 01:19:00,
2013-01-18 19:24:00,50.0,30.6,30.23,SSW,202,1.0,16.0,47,0.00,,SKC,0.00,VWS V14.01,2013-01-19 01:24:00,
2013-01-18 19:29:00,49.0,30.2,30.23,SSW,202,1.0,16.0,48,0.00,,SKC,0.00,VWS V14.01,2013-01-19 01:29:00,
2013-01-18 19:34:00,49.0,30.2,30.23,SSW,202,1.0,16.0,48,0.00,,SKC,0.00,VWS V14.01,2013-01-19 01:34:00,
2013-01-18 19:39:00,48.0,29.8,30.23,SSW,202,1.0,16.0,49,0.00,,SKC,0.00,VWS V14.01,2013-01-19 01:39:00,
2013-01-18 19:44:00,48.0,30.3,30.22,SSW,202,1.0,16.0,50,0.00,,SKC,0.00,VWS V14.01,2013-01-19 01:44:00,
2013-01-18 19:49:00,48.0,30.3,30.22,SSW,202,1.0,16.0,50,0.00,,SKC,0.00,VWS V14.01,2013-01-19 01:49:00,
2013-01-18 19:54:00,48.0,31.2,30.22,SSW,202,1.0,16.0,52,0.00,,SKC,0.00,VWS V14.01,2013-01-19 01:54:00,
2013-01-18 19:59:00,47.0,29.8,30.22,SSW,202,0.0,16.0,51,0.00,,SKC,0.00,VWS V14.01,2013-01-19 01:59:00,
2013-01-18 20:04:00,47.0,30.8,30.22,SSW,202,2.0,16.0,53,0.00,,SKC,0.00,VWS V14.01,2013-01-19 02:04:00,
2013-01-18 20:09:00,47.0,30.8,30.22,SSW,202,2.0,16.0,53,0.00,,SKC,0.00,VWS V14.01,2013-01-19 02:09:00,
2013-01-18 20:14:00,47.0,30.8,30.22,SSW,202,2.0,16.0,53,0.00,,SKC,0.00,VWS V14.01,2013-01-19 02:14:00,
2013-01-18 20:19:00,47.0,31.2,30.22,SSW,202,0.0,16.0,54,0.00,,SKC,0.00,VWS V14.01,2013-01-19 02:19:00,
2013-01-18 20:24:00,47.0,31.2,30.22,SSW,202,2.0,16.0,54,0.00,,SKC,0.00,VWS V14.01,2013-01-19 02:24:00,
2013-01-18 20:27:00,49.0,42.8,28.15,North,360,6.0,19.0,79,1.27,,SKC,0.00,VWS V15.00,2013-01-19 02:27:00,
2013-01-18 20:28:00,49.0,42.8,28.15,NNE,22,5.0,19.0,79,1.27,,SKC,0.00,VWS V15.00,2013-01-19 02:28:00,
2013-01-18 20:29:00,46.0,30.8,30.22,SSW,202,1.0,16.0,55,0.00,,SKC,0.00,VWS V14.01,2013-01-19 02:29:00,
2013-01-18 20:30:00,48.0,41.8,28.14,North,360,6.0,19.0,79,1.27,,SKC,0.00,VWS V15.00,2013-01-19 02:30:00,
2013-01-18 20:31:00,48.0,41.8,28.14,NE,45,9.0,19.0,79,1.27,,SKC,0.00,VWS V15.00,2013-01-19 02:31:00,
2013-01-18 20:32:00,48.0,42.1,28.14,NW,315,7.0,19.0,80,1.27,,SKC,0.00,VWS V15.00,2013-01-19 02:32:00,
2013-01-18 20:34:00,46.0,30.8,30.21,SSW,202,0.0,16.0,55,0.00,,SKC,0.00,VWS V14.01,2013-01-19 02:34:00,
2013-01-18 20:39:00,47.0,31.7,30.21,SSW,202,2.0,16.0,55,0.00,,SKC,0.00,VWS V14.01,2013-01-19 02:39:00,
2013-01-18 20:44:00,47.0,31.7,30.21,SSW,202,1.0,16.0,55,0.00,,SKC,0.00,VWS V14.01,2013-01-19 02:44:00,
2013-01-18 20:48:00,46.0,31.2,30.21,SSW,202,1.0,16.0,56,0.00,,SKC,0.00,VWS V14.01,2013-01-19 02:48:00,
2013-01-18 20:53:00,46.0,31.6,30.21,SSW,202,0.0,16.0,57,0.00,,SKC,0.00,VWS V14.01,2013-01-19 02:53:00,
2013-01-18 20:58:00,46.0,31.6,30.21,SSW,202,1.0,16.0,57,0.00,,SKC,0.00,VWS V14.01,2013-01-19 02:58:00,
2013-01-18 21:03:00,45.0,31.1,30.21,SSW,202,3.0,16.0,58,0.00,,SKC,0.00,VWS V14.01,2013-01-19 03:03:00,
2013-01-18 21:09:00,45.0,31.1,30.20,SSW,202,2.0,16.0,58,0.00,,SKC,0.00,VWS V14.01,2013-01-19 03:09:00,
2013-01-18 21:14:00,45.0,32.0,30.20,SSW,202,1.0,16.0,60,0.00,,SKC,0.00,VWS V14.01,2013-01-19 03:14:00,
2013-01-18 21:19:00,45.0,32.0,30.20,SSW,202,2.0,16.0,60,0.00,,SKC,0.00,VWS V14.01,2013-01-19 03:19:00,
2013-01-18 21:24:00,45.0,32.0,30.20,SSW,202,2.0,16.0,60,0.00,,SKC,0.00,VWS V14.01,2013-01-19 03:24:00,
2013-01-18 21:29:00,45.0,32.0,30.20,South,180,2.0,16.0,60,0.00,,SKC,0.00,VWS V14.01,2013-01-19 03:29:00,
2013-01-18 21:34:00,45.0,32.4,30.20,SSW,202,2.0,16.0,61,0.00,,SKC,0.00,VWS V14.01,2013-01-19 03:34:00,
2013-01-18 21:39:00,45.0,32.0,30.20,SSW,202,3.0,16.0,60,0.00,,SKC,0.00,VWS V14.01,2013-01-19 03:39:00,
2013-01-18 21:43:00,45.0,32.0,30.20,SSW,202,4.0,16.0,60,0.00,,SKC,0.00,VWS V14.01,2013-01-19 03:43:00,
2013-01-18 21:48:00,45.0,32.0,30.20,SSW,202,3.0,16.0,60,0.00,,SKC,0.00,VWS V14.01,2013-01-19 03:48:00,
2013-01-18 21:53:00,46.0,32.9,30.20,SSW,202,3.0,16.0,60,0.00,,SKC,0.00,VWS V14.01,2013-01-19 03:53:00,
2013-01-18 21:58:00,46.0,32.9,30.20,SSW,202,3.0,16.0,60,0.00,,SKC,0.00,VWS V14.01,2013-01-19 03:58:00,
2013-01-18 22:00:00,59.0,59.0,30.21,NW,315,3.0,13.0,100,0.65,,SKC,0.23,VWS V14.01,2013-01-19 04:00:00,
2013-01-18 22:03:00,46.0,32.9,30.20,SSW,202,3.0,16.0,60,0.00,,SKC,0.00,VWS V14.01,2013-01-19 04:03:00,
2013-01-18 22:08:00,46.0,32.9,30.20,SSW,202,3.0,16.0,60,0.00,,SKC,0.00,VWS V14.01,2013-01-19 04:08:00,
2013-01-18 22:11:00,49.0,42.5,28.13,NE,45,7.0,19.0,78,1.27,,SKC,0.00,VWS V15.00,2013-01-19 04:11:00,
2013-01-18 22:12:00,49.0,42.5,28.13,North,360,6.0,19.0,78,1.27,,SKC,0.00,VWS V15.00,2013-01-19 04:12:00,
2013-01-18 22:13:00,49.0,42.5,28.13,North,360,5.0,19.0,78,1.27,,SKC,0.00,VWS V15.00,2013-01-19 04:13:00,
2013-01-18 22:14:00,46.0,32.9,30.20,SSW,202,3.0,16.0,60,0.00,,SKC,0.00,VWS V14.01,2013-01-19 04:14:00,
2013-01-18 22:15:00,50.0,43.1,28.12,North,360,13.0,19.0,77,1.27,,SKC,0.00,VWS V15.00,2013-01-19 04:15:00,
2013-01-18 22:19:00,45.0,32.0,30.20,South,180,2.0,16.0,60,0.00,,SKC,0.00,VWS V14.01,2013-01-19 04:19:00,
2013-01-18 22:24:00,45.0,32.4,30.20,SSW,202,1.0,16.0,61,0.00,,SKC,0.00,VWS V14.01,2013-01-19 04:24:00,
2013-01-18 22:29:00,45.0,32.4,30.19,SSW,202,4.0,16.0,61,0.00,,SKC,0.00,VWS V14.01,2013-01-19 04:29:00,
2013-01-18 22:34:00,45.0,32.4,30.19,South,180,2.0,16.0,61,0.00,,SKC,0.00,VWS V14.01,2013-01-19 04:34:00,
2013-01-18 22:39:00,45.0,32.8,30.19,South,180,2.0,16.0,62,0.00,,SKC,0.00,VWS V14.01,2013-01-19 04:39:00,
2013-01-18 22:40:00,25.0,23.0,29.83,West,270,4.0,16.0,92,42.99,,SKC,0.05,VWS V14.01,2013-01-19 04:40:00,
2013-01-18 22:44:00,44.0,31.8,30.19,SSW,202,1.0,16.0,62,0.00,,SKC,0.00,VWS V14.01,2013-01-19 04:44:00,
2013-01-18 22:45:00,26.0,24.3,29.83,West,270,3.0,16.0,93,0.48,,SKC,0.05,VWS V14.01,2013-01-19 04:45:00,
2013-01-18 22:46:00,26.0,24.3,29.83,West,270,5.0,16.0,93,0.48,,SKC,0.05,VWS V14.01,2013-01-19 04:46:00,
2013-01-18 22:47:00,26.0,24.3,29.83,West,270,5.0,16.0,93,0.48,,SKC,0.05,VWS V14.01,2013-01-19 04:47:00,
2013-01-18 22:48:00,26.0,24.5,29.83,WSW,247,5.0,16.0,94,0.48,,SKC,0.05,VWS V14.01,2013-01-19 04:48:00,
2013-01-18 22:49:00,44.0,32.6,30.19,SSW,202,2.0,16.0,64,0.00,,SKC,0.00,VWS V14.01,2013-01-19 04:49:00,
2013-01-18 22:54:00,43.0,32.1,30.19,SSW,202,2.0,16.0,65,0.00,,SKC,0.00,VWS V14.01,2013-01-19 04:54:00,
2013-01-18 22:58:00,43.0,32.4,30.18,SSW,202,1.0,16.0,66,0.00,,SKC,0.00,VWS V14.01,2013-01-19 04:58:00,
2013-01-18 23:05:00,43.0,32.4,30.18,South,180,2.0,16.0,66,0.00,,SKC,0.00,VWS V14.01,2013-01-19 05:05:00,
2013-01-18 23:10:00,43.0,32.8,30.18,SSW,202,3.0,16.0,67,0.00,,SKC,0.00,VWS V14.01,2013-01-19 05:10:00,
2013-01-18 23:15:00,44.0,33.8,30.18,SSW,202,7.0,16.0,67,0.00,,SKC,0.00,VWS V14.01,2013-01-19 05:15:00,
2013-01-18 23:20:00,43.0,32.8,30.18,South,180,5.0,16.0,67,0.00,,SKC,0.00,VWS V14.01,2013-01-19 05:20:00,
2013-01-18 23:23:00,62.0,36.8,29.71,WNW,292,10.0,17.0,39,0.00,,SKC,0.00,VWS V14.01,2013-01-19 05:23:00,
2013-01-18 23:24:00,62.0,36.8,29.71,NNW,337,10.0,17.0,39,0.00,,SKC,0.00,VWS V14.01,2013-01-19 05:24:00,
2013-01-18 23:25:00,44.0,33.8,30.17,South,180,4.0,16.0,67,0.00,,SKC,0.00,VWS V14.01,2013-01-19 05:25:00,
2013-01-18 23:26:00,62.0,35.5,29.72,NW,315,9.0,17.0,37,0.00,,SKC,0.00,VWS V14.01,2013-01-19 05:26:00,
2013-01-18 23:27:00,62.0,36.1,29.72,West,270,25.0,25.0,38,0.00,,SKC,0.00,VWS V14.01,2013-01-19 05:27:00,
2013-01-18 23:28:00,61.0,33.9,29.72,WNW,292,14.0,23.0,36,0.00,,SKC,0.00,VWS V14.01,2013-01-19 05:28:00,
2013-01-18 23:29:00,61.0,33.9,29.72,WNW,292,15.0,23.0,36,0.00,,SKC,0.00,VWS V14.01,2013-01-19 05:29:00,
2013-01-18 23:30:00,44.0,33.8,30.17,South,180,3.0,16.0,67,0.00,,SKC,0.00,VWS V14.01,2013-01-19 05:30:00,
2013-01-18 23:31:00,56.0,49.9,29.75,NE,45,10.0,24.0,80,0.00,,SKC,0.00,VWS V14.01,2013-01-19 05:31:00,
2013-01-18 23:32:00,56.0,50.3,29.75,NE,45,12.0,24.0,81,0.00,,SKC,0.00,VWS V14.01,2013-01-19 05:32:00,
2013-01-18 23:33:00,56.0,50.3,29.75,East,90,9.0,24.0,81,0.00,,SKC,0.00,VWS V14.01,2013-01-19 05:33:00,
2013-01-18 23:35:00,44.0,33.8,30.17,SSW,202,3.0,16.0,67,0.00,,SKC,0.00,VWS V14.01,2013-01-19 05:35:00,
2013-01-18 23:40:00,44.0,33.8,30.17,South,180,6.0,16.0,67,0.00,,SKC,0.00,VWS V14.01,2013-01-19 05:40:00,
2013-01-18 23:45:00,44.0,34.1,30.17,SSW,202,5.0,16.0,68,0.00,,SKC,0.00,VWS V14.01,2013-01-19 05:45:00,
2013-01-18 23:50:00,44.0,34.1,30.17,South,180,4.0,16.0,68,0.00,,SKC,0.00,VWS V14.01,2013-01-19 05:50:00,
2013-01-18 23:55:00,44.0,34.5,30.17,SSW,202,8.0,16.0,69,0.00,,SKC,0.00,VWS V14.01,2013-01-19 05:55:00,